Simultaneous Nadir Overpasses (SNOs) Predictions

Prediction of SNOs between NOAA-20 and AQUA Satellite Orbit:

Table of predicted SNOs for the next 14.0 days since TLE Epoch: 5/18/2024
Index Date (NOAA-20) Time (NOAA-20) Lat,Lon (NOAA-20) SZA (NOAA-20 ) Date (AQUA) Time (AQUA) Lat,Lon (AQUA) SZA (AQUA ) Distance(km) Time Diff (sec)
1 05/18/2024 19:51:50 81.25, 164.92 68.36 05/18/2024 19:52:24 81.25, 165.12 68.31 3.28 34
2 05/18/2024 20:42:34 -81.26, -27.30 111.72 05/18/2024 20:41:46 -81.25, -27.16 111.72 2.38 48
3 05/21/2024 08:45:37 81.26, -27.82 67.74 05/21/2024 08:45:38 81.26, -27.98 67.76 2.81 1
4 05/23/2024 20:48:43 -81.26, -28.96 112.68 05/23/2024 20:49:29 -81.26, -28.94 112.71 0.46 46
5 05/23/2024 21:39:27 81.26, 138.56 67.29 05/23/2024 21:38:51 81.26, 138.68 67.30 2.11 36
6 05/26/2024 09:42:31 -81.27, 138.09 113.18 05/26/2024 09:42:39 -81.26, 137.91 113.16 3.05 8
7 05/26/2024 10:32:54 81.34, -46.13 65.61 05/26/2024 10:31:41 81.57, -46.57 65.79 26.32 73
8 05/28/2024 21:45:36 81.26, 136.87 66.50 05/28/2024 21:46:25 81.25, 136.76 66.49 2.03 49
9 05/28/2024 22:36:19 -81.27, -54.96 113.63 05/28/2024 22:35:46 -81.27, -55.09 113.59 2.17 33



Historial Predications of SNOs between NOAA-20 and AQUA
